Regional Weather Roundup
Issued by NWS

Home | Current Version | Previous Version | Graphics & Text | Print | Product List | Glossary Off
Versions: 1 2 3 4 5 6 7 8 9 10 11 12 13 14 15 16 17 18 19 20 21 22 23 24 25 26 27 28 29 30 31 32 33 34 35 36 37 38 39 40 41 42 43 44 45 46 47 48 49 50

000
ASUS43 KTOP 251759
RWRKS

WEATHER ROUNDUP FOR KANSAS
NATIONAL WEATHER SERVICE GOODLAND KS
100 PM CDT MON MAY 25 2015

NOTE:  "FAIR" INDICATES FEW OR NO CLOUDS BELOW 12,000 FEET WITH NO
SIGNIFICANT WEATHER AND/OR OBSTRUCTIONS TO VISIBILITY.

KSZ001>006-013>018-027>032-041>047-251900-
NORTHWEST KANSAS

CITY           SKY/WX    TMP DP  RH WIND       PRES   REMARKS
GOODLAND       MOSUNNY   66  49  54 NW13      29.88R
6HR MIN TEMP:  48; 6HR MAX TEMP:  67;

HAYS           CLOUDY    66  55  68 S8        29.84S
HILL CITY      MOSUNNY   72  56  57 SW8       29.83R
6HR MIN TEMP:  49; 6HR MAX TEMP:  72;

RUSSELL        PTSUNNY   69  62  78 S10       29.81F
6HR MIN TEMP:  56; 6HR MAX TEMP:  69;

$$

KSZ061>065-074>080-084>089-251900-
SOUTHWEST KANSAS

CITY           SKY/WX    TMP DP  RH WIND       PRES   REMARKS
DODGE CITY     PTSUNNY   70  58  65 NW6       29.84S
6HR MIN TEMP:  54; 6HR MAX TEMP:  70;

ELKHART          N/A     71  49  45 SW2         N/A
GARDEN CITY    MOSUNNY   69  56  62 VRB5      29.84F
6HR MIN TEMP:  53; 6HR MAX TEMP:  69;

GREAT BEND     PTSUNNY   70  63  78 W7        29.82S
LIBERAL        PTSUNNY   72  55  56 N6        29.87S
$$

KSZ066>073-081>083-090>101-251900-
SOUTHEAST KANSAS

CITY           SKY/WX    TMP DP  RH WIND       PRES   REMARKS
CHANUTE        PTSUNNY   77  67  71 S18G26    29.91S
6HR MIN TEMP:  63; 6HR MAX TEMP:  77; 6HR PCP:  0.07;

COFFEYVILLE    PTSUNNY   77  68  73 S17G25    29.92S
6HR MIN TEMP:  65; 6HR MAX TEMP:  77; 6HR PCP: TRACE;

HUTCHINSON     PTSUNNY   78  66  66 S21G28    29.82S
6HR MIN TEMP:  58; 6HR MAX TEMP:  78;

NEWTON         PTSUNNY   75  64  69 S21G28    29.85F
PARSONS        PTSUNNY   78  68  71 S14G24    29.93S
6HR MIN TEMP:  64; 6HR MAX TEMP:  78; 6HR PCP: TRACE;

WICHITA INTL   PTSUNNY   78  67  68 S26G32    29.82S
6HR MIN TEMP:  59; 6HR MAX TEMP:  78;

WICHITA JABRA  PTSUNNY   76  67  73 S20G30    29.83S
6HR MIN TEMP:  57; 6HR MAX TEMP:  77;

WINFIELD       PTSUNNY   76  67  73 S20G29    29.88R
6HR MIN TEMP:  63; 6HR MAX TEMP:  78; 6HR PCP:  0.01;

$$

KSZ007>012-019>026-033>040-048>060-102>105-251900-
NORTHEAST KANSAS

CITY           SKY/WX    TMP DP  RH WIND       PRES   REMARKS
CONCORDIA      CLOUDY    71  63  75 S15       29.82F
6HR MIN TEMP:  56; 6HR MAX TEMP:  72;

EMPORIA        CLOUDY    75  66  73 S21G32    29.86S
6HR MIN TEMP:  57; 6HR MAX TEMP:  75; 6HR PCP:  0.01;

LAWRENCE       CLOUDY    74  64  71 S13G24    29.89R
6HR MIN TEMP:  61; 6HR MAX TEMP:  76; 6HR PCP:  0.07;

MANHATTAN      CLOUDY    73  64  73 S9        29.83F
6HR MIN TEMP:  59; 6HR MAX TEMP:  75;

OLATHE IND     PTSUNNY   73  65  75 S17       29.91R
6HR MIN TEMP:  61; 6HR MAX TEMP:  75; 6HR PCP:  0.08;

OLATHE EXE     PTSUNNY   73  65  75 S15G25    29.90R
6HR MIN TEMP:  60; 6HR MAX TEMP:  75; 6HR PCP:  0.04;

SALINA         PTSUNNY   74  64  71 S13       29.82F
6HR MIN TEMP:  58; 6HR MAX TEMP:  75;

TOPEKA BILLARD CLOUDY    75  64  68 S13       29.87S
6HR MIN TEMP:  60; 6HR MAX TEMP:  75; 6HR PCP:  0.18;

TOPEKA FORBES  CLOUDY    74  64  71 S14       29.87R
6HR MIN TEMP:  61; 6HR MAX TEMP:  75; 6HR PCP:  0.13;

$$


USA.gov is the U.S. government's official web portal to all federal, state and local government web resources and services.